Regional Weather Roundup
Issued by NWS

Home | Current Version | Previous Version | Text Only | Print | Product List | Glossary Off
Versions: 1 2 3 4 5 6 7 8 9 10 11 12 13 14 15 16 17 18 19 20 21 22 23 24 25 26 27 28 29 30 31 32 33 34 35 36 37 38 39 40 41 42 43 44 45 46 47 48 49 50

839
ASUS43 KFSD 010910
RWRSD

WEATHER ROUNDUP FOR SOUTH DAKOTA
NATIONAL WEATHER SERVICE SIOUX FALLS SD
300 AM CST WED MAR 01 2017

NOTE: "FAIR" INDICATES FEW OR NO CLOUDS BELOW 12,000 FEET WITH NO
SIGNIFICANT WEATHER AND/OR OBSTRUCTIONS TO VISIBILITY.


SDZ001>005-009-010-012>017-011000-
NORTHWEST AND NORTH CENTRAL SOUTH DAKOTA

CITY           SKY/WX    TMP DP  RH WIND       PRES   REMARKS
BUFFALO          N/A     26  23  88 NW16      29.83R WCI  14
FAITH            N/A     20  17  88 SW13      29.88R WCI   7
MOBRIDGE       MOCLDY    20  15  81 NW3       29.89R
$$

SDZ012>016-024>037-041>051-057-063-072>074-011000-
SOUTHWEST AND SOUTH CENTRAL SOUTH DAKOTA

CITY           SKY/WX    TMP DP  RH WIND       PRES   REMARKS
RAPID CTY ARPT PTCLDY    22  16  78 W10       29.90R WCI  11
PIERRE         CLOUDY    21  19  92 W8        29.92R WCI  11
CUSTER         CLOUDY    20   9  62 NW12G24   29.83R WCI   8
ELLSWORTH AFB  CLEAR     23  18  80 NW13      29.90R WCI  11
PHILIP         PTCLDY    12  10  92 W8        29.94R WCI   0
PINE RIDGE     CLEAR     23  14  68 W14       29.94R WCI  11
SPEARFISH      LGT SNOW  27  23  86 W20G32    29.93R WCI  13
WINNER         CLOUDY    27  23  85 NW8       29.91  WCI  19
$$

SDZ004>011-016>023-039-040-011000-
NORTHEAST SOUTH DAKOTA

CITY           SKY/WX    TMP DP  RH WIND       PRES   REMARKS
ABERDEEN       CLOUDY    22  17  81 NW10      29.91R WCI  11
WATERTOWN      CLOUDY    22  20  92 N10       29.82S WCI  11
BROOKINGS      LGT SNOW  26  24  92 N13       29.79F FOG     WCI  15
SISSETON         N/A     22  18  85 N17       29.86S WCI   8
$$

SDZ017-020-022-023-036>040-048>070-011000-
SOUTHEAST SOUTH DAKOTA

CITY           SKY/WX    TMP DP  RH WIND       PRES   REMARKS
SIOUX FALLS    LGT SNOW  30  29  96 NW14      29.80S VSB 3/4 WCI  19
HURON          CLOUDY    24  23  96 N12       29.88F WCI  13
CHAMBERLAIN    CLOUDY    28  26  92 NW10      29.91S WCI  19
MITCHELL       LGT SNOW  27  25  92 NW15      29.88S FOG     WCI  15
YANKTON        CLOUDY    30  27  86 NW18      29.84R WCI  18
$$

ABBREVIATIONS USED IN REMARKS
   TC - TEMPERATURE IN CELSIUS
  WCI - WIND CHILL INDEX
   HX - HEAT INDEX
  VSB - VISIBILITY





USA.gov is the U.S. government's official web portal to all federal, state and local government web resources and services.